Home > Weather > Bordeaux > Past weeks

Flag for France Weather for the Past 2 Weeks in Bordeaux, Aquitaine, France

Now
57 °F

Clear.


Feels Like: 55 °F
Forecast: 57 / 74 °F
Wind: 9 mph from Southeast

Location: Bordeaux / Merignac

Current Time: May 6, 2016 at 6:03:45 AM

Latest Report: May 6, 2016 at 5:30 AM


Visibility: 10 mi

Pressure: 29.80 "Hg

Humidity: 59%

Dew Point: 43 °F

Location of BordeauxLocation

Historic Weather in Bordeaux — Graph

°F

Bordeaux Temperature Yesterday

Maximum temperature yesterday: 81 °F (at 3:30 PM)
Minimum temperature yesterday: 52 °F (at 6:30 AM)
Average temperature yesterday: 67 °F

High & Low Weather Summary for the Past Weeks

 TemperatureHumidityPressure
High81 °F (May 5, 3:30 PM)100% (Apr 22, 7:00 AM)30.45 "Hg (Apr 22, 7:00 AM)
Low36 °F (Apr 29, 4:30 AM)23% (May 4, 5:30 PM)29.77 "Hg (May 5, 7:30 PM)
Average54 °F64%30.11 "Hg
* Reported Apr 21 5:00 AM — May 6 5:00 AM, Bordeaux, Weather by CustomWeather, © 2016

Note: Actual official high and low records may vary slightly from our data, if they occured in-between our weather recording intervals... More about our weather records

Advertising

Bordeaux Weather History for the Previous 24 Hours

Scroll right to see more
 ConditionsComfort  
Time TempWeatherWind HumidityBarometerVisibility
5:00 AM
Fri, May 6
57 °FClear.9 mph59%29.80 "Hg10 mi
4:30 AM57 °FClear.9 mph59%29.83 "Hg10 mi
4:00 AM59 °FClear.9 mph55%29.83 "Hg10 mi
3:30 AM59 °FClear.12 mph55%29.83 "Hg10 mi
3:00 AM61 °FClear.13 mph52%29.83 "Hg10 mi
2:30 AM61 °FClear.10 mph52%29.83 "Hg10 mi
2:00 AM61 °FClear.12 mph52%29.83 "Hg10 mi
1:30 AM63 °FClear.13 mph45%29.83 "Hg10 mi
1:00 AM63 °FClear.15 mph42%29.83 "Hg10 mi
12:30 AM64 °FClear.15 mph40%29.83 "Hg10 mi
12:00 AM66 °FClear.14 mph35%29.83 "Hg10 mi
11:30 PM
Thu, May 5
68 °FClear.20 mph30%29.83 "Hg10 mi
11:00 PM68 °FClear.17 mph30%29.83 "Hg10 mi
10:30 PM70 °FClear.16 mph29%29.83 "Hg10 mi
10:00 PM73 °FPassing clouds.15 mph31%29.83 "HgN/A
9:30 PM73 °FSunny.12 mph36%29.80 "Hg10 mi
9:00 PM75 °FSunny.9 mph34%29.80 "Hg10 mi
8:30 PM75 °FSunny.9 mph34%29.80 "Hg10 mi
8:00 PM77 °FSunny.13 mph30%29.80 "Hg10 mi
7:30 PM79 °FSunny.13 mph28%29.77 "Hg10 mi
7:00 PM79 °FSunny.12 mph26%29.80 "Hg10 mi
6:30 PM81 °FPassing clouds.10 mph24%29.80 "HgN/A
6:00 PM81 °FPassing clouds.9 mph23%29.80 "HgN/A
5:30 PM81 °FPassing clouds.10 mph23%29.80 "HgN/A
5:00 PM81 °FPassing clouds.10 mph23%29.80 "HgN/A
4:30 PM81 °FSunny.12 mph23%29.80 "Hg10 mi
4:00 PM81 °FPassing clouds.12 mph23%29.83 "HgN/A
3:30 PM81 °FPassing clouds.13 mph26%29.83 "HgN/A
3:00 PM79 °FSunny.14 mph26%29.83 "Hg10 mi
2:30 PM79 °FSunny.15 mph26%29.83 "Hg10 mi
2:00 PM77 °FPassing clouds.14 mph28%29.86 "HgN/A
1:30 PM75 °FSunny.13 mph34%29.86 "Hg10 mi
1:00 PM73 °FPassing clouds.12 mph33%29.89 "HgN/A
12:30 PM72 °FPassing clouds.16 mph31%29.89 "HgN/A
12:00 PM72 °FPassing clouds.15 mph31%29.89 "HgN/A
11:30 AM68 °FSunny.14 mph38%29.89 "Hg10 mi
11:00 AM68 °FSunny.12 mph40%29.89 "Hg10 mi
10:30 AM64 °FSunny.17 mph40%29.92 "Hg10 mi
10:00 AM63 °FSunny.17 mph42%29.92 "Hg10 mi
9:30 AM63 °FPassing clouds.13 mph42%29.92 "HgN/A
9:00 AM59 °FSunny.12 mph48%29.92 "Hg10 mi
8:30 AM57 °FSunny.10 mph51%29.92 "Hg10 mi
8:00 AM55 °FPassing clouds.8 mph55%29.92 "HgN/A
7:30 AM52 °FPassing clouds.6 mph62%29.95 "HgN/A
7:00 AM52 °FClear.6 mph58%29.92 "Hg10 mi
6:30 AM52 °FClear.6 mph58%29.92 "Hg10 mi
6:00 AM54 °FClear.8 mph54%29.95 "Hg10 mi
Weather by CustomWeather, © 2016

See weather overviewHow to use our weather pages